Погода в Высокове

Россия / Костромская область     58°37′13″N   44°41′41″E
темп.,
°C
ветер,
м/с
пор.,
м/с
влажн.,
%
обл.,
%
осадки,
мм/ч
давл.,
гПа
погр.,
м
22 октября, пт
пт2200:00+9юз51295100 0.0 992567
03:00+9ююз51298100 0.4 990576
06:00+9ююз61495100 2.6 988905
09:00+9юз61390100 3.3 987916
12:00+10юз61387100 0.0 989981
15:00+10юз6128054 0.1 9891157
18:00+8юз41283100 0.2 990703
21:00+6зюз6148225 2.3 994829
23 октября, сб
сб2300:00+6зюз71267100 0.0 9961397
03:00+5зюз51178100 0.1 9971029
06:00+4зюз51177100 0.1 9981365
09:00+5юз51180100 0.1 1000918
12:00+6юз5978100 0.1 10011278
15:00+6юз4982100 0.1 1002850
18:00+5ююз3985100 0.1 1003615
21:00+5юз3888100 0.3 1003700
24 октября, вс
вс2400:00+4ю2495100 0.1 1003138
03:00+4юз2691100 0.3 1003526
06:00+3юз2494100 0.1 1003436
09:00+4зюз249093 0.3 1004457
12:00+3зюз2496100 0.3 1005682
15:00+4з359199 0.8 1007578
18:00+3сз2590100 0.1 1009338
21:00+2ссз2596100 0.2 1011414
25 октября, пн
пн2500:00+1с4988100 0.3 1014660
03:000ссз598481 0.3 1017843
06:00−2ссз411865 0.0 1019603
09:00−1сз410795 0.0 1021603
12:00+1сз57543 0.0 1022974
15:00+1сз48615 0.0 10231133
18:00−2зсз277716 0.0 1024261
21:00−2з2684100 0.0 1024190
26 октября, вт
вт2600:00−1юз277699 0.0 1023347
03:00−1юз3991100 0.1 1021511
06:00−1юз41095100 0.6 1019492
09:000юз41194100 1.0 1018554
12:00+2зюз41082100 0.1 1017578
15:00+2юз41082100 0.4 1015634
18:00+1юз41187100 0.0 1015490
21:000юз41089100 0.0 1014471